Location: Natural Bridges National Monument
(37.6093°N, 109.9767°W)
Time: 09:45:38
(UTC-07:00)

Daily predictions for brighter satellites

Satellite Brightness Start Highest point End
(mag) Time Altitude Azimuth Time Altitude Azimuth Time Altitude Azimuth
Cosmos 2026 Rocket 4.1 17:20:28 10° N 17:26:50 67° E 17:33:05 10° SSE
SMAP 3.4 17:24:01 10° SE 17:28:25 45° ENE 17:32:52 10° N
AQUARIUS 4.5 17:26:05 10° SE 17:30:22 45° ENE 17:34:40 10° N
Cosmos 1937 Rocket 3.5 17:25:56 10° SSW 17:31:07 88° ESE 17:36:18 10° NNE
Okean 1 3.3 17:28:26 10° S 17:32:24 84° E 17:36:23 10° N
Cosmos 2298 Rocket 4.1 17:28:07 10° SSW 17:33:26 87° ESE 17:38:46 10° NNE
Atlas Centaur 2 3.1 17:31:04 10° WSW 17:36:06 36° S 17:40:11 10° ESE
ALOS 3.7 17:37:04 10° ESE 17:40:05 17° ENE 17:43:06 10° NNE
Cosmos 1500 3.8 17:37:24 10° NNW 17:41:08 60° W 17:44:49 10° S
DELTA 2 R/B (1) 3.6 17:36:15 10° WSW 17:41:50 89° NNW 17:47:19 11° ENE
CZ-2C R/B 4.0 17:38:25 10° S 17:43:20 43° W 17:48:16 10° NNW
Cosmos 1271 Rocket 3.2 17:40:18 10° N 17:43:50 36° ENE 17:47:23 10° SE
Cosmos 2227 Rocket 3.0 17:39:22 10° N 17:44:11 28° ENE 17:48:57 10° ESE
Cosmos 1932 4.4 17:39:57 10° NNW 17:46:20 73° ENE 17:52:33 10° SE
Cosmos 2219 3.1 17:41:25 10° NNW 17:47:04 77° ENE 17:52:40 10° SSE
Cosmos 1455 Rocket 3.5 17:43:45 10° N 17:47:55 40° E 17:52:02 10° SSE
Cosmos 1975 2.8 17:44:56 10° N 17:48:59 85° E 17:53:02 10° S
Cosmos 1484 Rocket 2.8 17:45:26 10° SSE 17:49:26 87° ENE 17:53:28 10° N
USA 238 DEB 4.2 17:42:53 10° NNW 17:49:29 39° NE 17:56:07 10° ESE
USA 238 4.2 17:42:59 10° NNW 17:49:34 39° NE 17:56:12 10° ESE
ISS -2.3 17:48:27 10° NNW 17:50:59 20° NNE 17:52:36 15° ENE
Abrixas rocket 3.7 17:48:25 10° W 17:51:15 27° NNW 17:53:53 11° NE
Cosmos 1544 Rocket 3.7 17:47:34 10° N 17:51:48 48° E 17:55:59 10° SSE
YAOGAN 1 2.9 17:49:34 10° SE 17:53:38 42° ENE 17:57:43 10° N
ERS-2 3.3 17:51:16 10° ESE 17:54:06 22° ENE 17:56:56 10° NNE
Cosmos 1428 Rocket 4.5 17:51:52 10° N 17:58:04 86° E 18:04:12 10° S
CORIOLIS 4.1 17:53:02 10° SSE 17:58:27 80° ENE 18:03:52 10° N
CZ-4 R/B 1.2 17:54:58 10° SSE 17:58:47 70° ENE 18:02:41 10° N
Cosmos 1607 4.5 17:53:56 10° NW 18:00:22 68° WSW 18:06:42 10° SSE
Delta 2 Rocket 4.1 17:56:31 10° W 18:02:06 72° S 18:06:37 13° E
Cosmos 1980 Rocket 3.9 18:00:05 10° ESE 18:02:26 13° E 18:02:45 13° E
USA 116 3.1 18:04:43 10° NNE 18:07:56 87° WNW 18:11:01 10° SSW
COSMO-SKYMED 1 2.7 18:05:24 10° NNE 18:09:39 52° E 18:13:52 10° S
Cosmos 2279 Rocket 4.4 18:04:10 10° SSW 18:10:22 66° W 18:16:37 10° N
Cosmos 2297 Rocket 2.6 18:06:13 10° N 18:11:30 39° ENE 18:16:44 10° SE
PSLV R/B 3.0 18:09:34 10° WSW 18:12:43 85° SSE 18:14:08 29° ENE
Cosmos 1666 2.6 18:09:53 10° N 18:13:39 89° W 18:17:22 10° S
Meteor 1-13 Rocket 4.2 18:10:38 10° S 18:16:11 88° E 18:21:53 10° N
NOSS 3-2 (A) 4.4 18:13:20 10° NNW 18:20:19 39° NE 18:27:40 11° ESE
Meteor 2-4 Rocket 3.5 18:16:05 10° S 18:21:33 76° E 18:26:56 10° NNE
SJ 16-02 1.4 18:17:46 10° S 18:22:03 58° ESE 18:25:04 19° NNE
Centaur D AC-28 4.4 18:17:40 10° WSW 18:23:12 48° S 18:56:38 10° ESE
Centaur D AC-28 4.4 18:17:41 10° WSW 18:23:12 48° S 18:56:38 10° ESE
Centaur D AC-28 4.4 18:17:40 10° WSW 18:23:12 48° S 18:56:37 10° ESE
Centaur D AC-28 4.4 18:17:40 10° WSW 18:23:13 48° S 18:56:38 10° ESE
MTI 3.7 18:21:46 13° N 18:24:36 85° WNW 18:27:50 10° SSW
CZ-4 R/B 4.5 18:22:58 10° S 18:27:06 83° WSW 18:31:16 10° NNW
ATLAS 2AS CENTAUR R/B 3.6 18:23:00 10° SW 18:30:34 55° NW 18:38:33 10° NNE
Cosmos 1656 3.6 18:25:16 10° S 18:30:48 67° ESE 18:34:43 20° NNE
SPOT 3 Rocket 3.5 18:26:10 10° SSE 18:31:14 59° ENE 18:36:19 10° N
Hubble Space Telescope 2.7 18:28:45 10° SW 18:32:01 22° S 18:34:33 13° SE
MONITOR-E 4.0 18:32:54 10° SSE 18:35:56 87° ENE 18:39:00 10° N
Cosmos 158 Rocket 3.7 18:31:51 10° NNW 18:36:57 76° ENE 18:41:54 10° SSE
Cosmos 2369 3.7 18:33:21 10° SSW 18:39:01 89° WNW 18:43:29 17° NNE
ATLAS 3B R/B 2.5 18:33:37 10° NNW 18:40:16 76° ENE 18:46:46 10° SE
Cosmos 2278 3.6 18:35:07 10° SSW 18:40:47 89° ESE 18:45:04 19° NNE
Cosmos 1536 Rocket 4.3 18:41:26 10° SSW 18:45:41 53° W 18:49:58 10° N
EO 1 Del DPAF 3.5 18:43:09 18° N 18:45:53 66° WNW 18:49:40 10° SSW
Thor Agena Rocket 4.1 18:47:28 37° E 18:47:28 37° E 18:52:13 10° SSE
Gbstr 26 Del rocket 4.3 18:41:42 10° SW 18:49:46 78° SE 18:53:18 34° ENE
Cosmos 1025 Rocket 3.0 18:46:38 10° S 18:50:51 58° E 18:50:58 57° E
NOSS 3-4 (A) 3.5 18:45:40 10° SSW 18:51:44 60° ESE 18:53:58 38° ENE
NOSS 3-4 (C) 3.5 18:45:46 10° SSW 18:51:49 59° ESE 18:54:02 39° ENE
Cosmos 1515 3.6 18:54:51 10° S 18:58:28 81° S 18:58:28 81° S
FENGYUN 3A 3.7 18:54:57 10° S 19:00:19 77° WSW 19:05:43 10° NNW
Cosmos 1269 Rocket 3.9 18:58:45 10° NNW 19:04:05 82° ENE 19:09:22 10° SSE
Cosmos 1697 Rocket 2.6 19:00:22 10° SSW 19:06:01 88° ESE 19:07:58 43° NNE
FengYun 1-2 T 4.1 19:02:06 10° SSE 19:07:38 64° ENE 19:13:13 10° N
NOAA 12 4.5 19:03:44 10° S 19:08:57 64° WSW 19:14:11 10° NNW
Cosmos 2082 3.9 19:08:45 10° NNW 19:14:19 67° WSW 19:19:53 10° S
ALOS 3.3 19:12:41 10° S 19:17:08 44° W 19:21:37 10° NNW
SL-24 R/B - RUBIN 2 4.2 19:10:56 10° SSW 19:17:11 65° ESE 19:17:20 65° ESE
CENTAUR R/B 3.9 19:16:24 10° NNW 19:22:01 32° NNE 19:22:01 32° NNE
Atlas Centaur 2 3.2 19:20:41 10° WSW 19:24:22 23° SSW 19:24:25 23° SSW
Cosmos 724 4.4 19:20:00 10° NW 19:25:46 71° WSW 19:28:33 32° SSE
ISS -1.0 19:24:27 10° WNW 19:25:19 17° WNW 19:25:19 17° WNW
Cosmos 2227 Rocket 3.5 19:23:05 10° NW 19:28:18 39° WSW 19:33:28 10° S
DELTA 2 R/B (1) 3.6 19:22:54 10° W 19:28:06 70° NNW 19:28:06 70° NNW
Cosmos 1980 Rocket 2.6 19:40:00 10° SSW 19:44:35 59° SW 19:44:35 59° SW
Cosmos 2297 Rocket 4.1 19:50:40 10° NW 19:55:18 27° WSW 19:59:56 10° SSW
SJ 16-02 4.2 19:59:19 10° W 20:01:03 12° WNW 20:02:08 11° NW
NOSS 3-2 (C) 4.3 20:09:40 10° NW 20:17:17 62° WSW 20:17:39 62° SW
